Location: Austin
(30.3000°N, 97.7500°W)
Time: 06:48:07
(UTC-05:00)

SL-12 R/B(2) - Pass Details

Date: 16 June 2025
Orbit: 1179 x 2169 km, 63.4° (Epoch: 07 July)

Event Time Altitude Azimuth Distance (km) Brightness Sun altitude
Exits shadow 00:45:51 57° 68° (ENE) 1,542 4.4 -35.2°
Drops below altitude 10° 00:53:00 10° 35° (NE) 3,645 6.9 -35.5°
Sets 00:56:16 0° 33° (NNE) 4,767 7.7 -35.7°
